�N����,����,����,����,����,�C��,���x,�~����,�S�V����,�ő�u�ԕ���,,,,,
,,,,,,,,,����,����,����,�N��,,
yyyy/mm/dd,hh:mm:ss,(16),16����,m/s,��,%,mm,KW/�u,(16),16����,m/s,Time,,
2017/2/1,1:00:00,11,���쐼,2.7,-19.2,84.3,0,0,4,��,4.1,40,,
2017/2/1,2:00:00,9,��쐼,3.5,-18.1,88.4,0,0,8,��,4.9,30,,
2017/2/1,3:00:00,11,���쐼,1.8,-18.3,85.8,0,0,12,��,4.6,6,,
2017/2/1,4:00:00,9,��쐼,2.8,-19.4,86.6,0,0,12,��,4.8,28,,
2017/2/1,5:00:00,9,��쐼,3.2,-20,85,0,0,7,��쓌,5.6,7,,
2017/2/1,6:00:00,10,�쐼,2.7,-19.2,87.5,0,0,11,���쐼,4.4,33,,
2017/2/1,7:00:00,9,��쐼,2.4,-18.4,85.9,0,0.01,10,�쐼,4,58,,
2017/2/1,8:00:00,11,���쐼,2,-15.5,88.9,0,0.15,9,��쐼,4.5,7,,
2017/2/1,9:00:00,12,��,1,-13.4,62.4,0,0.35,8,��,2.6,7,,
2017/2/1,10:00:00,16,�É�,0,-7.9,38.4,0,0.5,12,��,3.1,30,,
2017/2/1,11:00:00,5,���쓌,1.6,-2.2,32,0,0.59,4,��,2.9,38,,
2017/2/1,12:00:00,3,���k��,1.5,-0.8,36.5,0,0.62,4,��,3.1,41,,
2017/2/1,13:00:00,2,�k��,2.6,-1.4,45.7,0.5,0.6,2,�k��,3.8,33,,
2017/2/1,14:00:00,3,���k��,2.5,-0.9,59,0,0.39,2,�k��,4.3,7,,
2017/2/1,15:00:00,2,�k��,1.1,-0.5,55.5,0.5,0.32,2,�k��,3.4,24,,
2017/2/1,16:00:00,8,��,1,-0.8,56.8,0,0.1,8,��,2.1,57,,
2017/2/1,17:00:00,9,��쐼,1.3,-1.2,64.8,0,0.01,9,��쐼,2.6,33,,
2017/2/1,18:00:00,12,��,1.7,-2.4,78.6,0,0,16,�k,2.7,46,,
2017/2/1,19:00:00,12,��,2,-3.4,85.2,0,0,12,��,3.2,58,,
2017/2/1,20:00:00,12,��,4.6,-3.6,89.7,0,0,11,���쐼,9.3,46,,
2017/2/1,21:00:00,13,���k��,3.5,-3.6,78.4,0,0,14,�k��,7.7,53,,
2017/2/1,22:00:00,13,���k��,5.1,-4.8,78.2,0,0,1,�k�k��,9.8,29,,
2017/2/1,23:00:00,11,���쐼,5.9,-5.5,56.2,0,0,11,���쐼,11,59,,
2017/2/1,0:00:00,12,��,3.3,-7.8,48.2,0,0,10,�쐼,12.6,8,,
2017/2/2,1:00:00,10,�쐼,4.8,-8.4,50,0,0,12,��,9.1,14,,
2017/2/2,2:00:00,10,�쐼,2.5,-8.9,51.4,0,0,1,�k�k��,5.9,2,,
2017/2/2,3:00:00,11,���쐼,1.2,-14.7,48.1,0,0,12,��,3.6,35,,
2017/2/2,4:00:00,11,���쐼,3.7,-13.3,52.4,0,0,11,���쐼,5.8,37,,
2017/2/2,5:00:00,10,�쐼,1.9,-14.1,62.7,0,0,11,���쐼,4.6,4,,
2017/2/2,6:00:00,10,�쐼,2,-12.9,65.7,0,0,11,���쐼,3.4,42,,
2017/2/2,7:00:00,11,���쐼,1.8,-14.3,66.9,0,0.01,10,�쐼,2.7,56,,
2017/2/2,8:00:00,11,���쐼,0.5,-14.7,56.5,0,0.14,9,��쐼,2.8,3,,
2017/2/2,9:00:00,10,�쐼,5.7,-7.3,37.8,0,0.34,9,��쐼,8.9,51,,
2017/2/2,10:00:00,11,���쐼,4.5,-5.9,31.7,0,0.5,13,���k��,11.2,23,,
2017/2/2,11:00:00,12,��,4.4,-5.7,31.6,0,0.59,9,��쐼,10.6,35,,
2017/2/2,12:00:00,12,��,4.1,-5.6,33.6,0,0.61,11,���쐼,9.6,1,,
2017/2/2,13:00:00,13,���k��,4.1,-5.9,40.2,0,0.61,13,���k��,9.4,37,,
2017/2/2,14:00:00,13,���k��,3.5,-6.9,47.9,0,0.36,11,���쐼,7.8,30,,
2017/2/2,15:00:00,13,���k��,3.4,-6.7,49.7,0,0.3,14,�k��,7,46,,
2017/2/2,16:00:00,13,���k��,3.4,-7,55.3,0,0.23,12,��,6.6,32,,
2017/2/2,17:00:00,11,���쐼,1.3,-11.3,63.6,0,0.04,14,�k��,5.2,4,,
2017/2/2,18:00:00,11,���쐼,1,-15.7,69,0,0,10,�쐼,2.5,45,,
2017/2/2,19:00:00,12,��,1.4,-19.6,73.2,0,0,12,��,2.2,55,,
2017/2/2,20:00:00,11,���쐼,2,-19,81.5,0,0,9,��쐼,3.3,57,,
2017/2/2,21:00:00,11,���쐼,2.3,-19.6,83.8,0,0,10,�쐼,3.7,17,,
2017/2/2,22:00:00,10,�쐼,2.2,-18.3,87.1,0,0,11,���쐼,3.2,29,,
2017/2/2,23:00:00,13,���k��,2.2,-19.4,83.5,0,0,12,��,4.1,34,,
2017/2/2,0:00:00,13,���k��,2.7,-20.2,79.9,0,0,13,���k��,3.7,59,,
2017/2/3,1:00:00,12,��,1.4,-19.3,81.3,0,0,1,�k�k��,4.3,18,,
2017/2/3,2:00:00,12,��,2.5,-18.9,84.8,0,0,9,��쐼,3.4,59,,
2017/2/3,3:00:00,11,���쐼,1.8,-20.8,80.5,0,0,16,�k,3.4,2,,
2017/2/3,4:00:00,13,���k��,2.7,-21.9,83.7,0,0,7,��쓌,3.6,58,,
2017/2/3,5:00:00,16,�É�,0.2,-22.2,81.3,0,0,13,���k��,3.8,30,,
2017/2/3,6:00:00,11,���쐼,1,-22.7,82.8,0,0.01,9,��쐼,4,39,,
2017/2/3,7:00:00,10,�쐼,2.3,-21.5,79.7,0,0.02,12,��,3.2,55,,
2017/2/3,8:00:00,11,���쐼,2.3,-21.5,84.5,0,0.16,12,��,3.7,52,,
2017/2/3,9:00:00,12,��,1.1,-17.2,70.3,0,0.35,13,���k��,5,6,,
2017/2/3,10:00:00,16,�É�,0,-10.5,43.4,0,0.52,9,��쐼,3.6,3,,
2017/2/3,11:00:00,7,��쓌,1.2,-6.7,22.3,0,0.61,7,��쓌,2.8,55,,
2017/2/3,12:00:00,10,�쐼,1.2,-5.9,25.6,0,0.65,10,�쐼,3.5,12,,
2017/2/3,13:00:00,11,���쐼,1.6,-5.6,18.7,0,0.63,10,�쐼,4.9,37,,
2017/2/3,14:00:00,15,�k�k��,1.4,-4.8,18.2,0,0.55,11,���쐼,3.3,4,,
2017/2/3,15:00:00,9,��쐼,2,-4.9,21.1,0,0.41,12,��,4.3,12,,
2017/2/3,16:00:00,10,�쐼,1.4,-7.3,24.6,0,0.23,9,��쐼,3.1,0,,
2017/2/3,17:00:00,16,�É�,0,-12.9,39.6,0,0.04,10,�쐼,2.5,16,,
2017/2/3,18:00:00,12,��,1.4,-17,44.2,0,0,9,��쐼,2.4,21,,
2017/2/3,19:00:00,12,��,2.3,-15,56.3,0,0,12,��,3,54,,
2017/2/3,20:00:00,12,��,2.1,-17.1,66.9,0,0,11,���쐼,3.1,59,,
2017/2/3,21:00:00,11,���쐼,3.2,-16.3,74.4,0,0,13,���k��,4.2,59,,
2017/2/3,22:00:00,10,�쐼,2.8,-17.1,76.3,0,0,13,���k��,4.1,5,,
2017/2/3,23:00:00,10,�쐼,2.2,-17.2,76.1,0,0,3,���k��,4.3,28,,
2017/2/3,0:00:00,11,���쐼,3.2,-18.2,79.9,0,0,10,�쐼,4.3,59,,
2017/2/4,1:00:00,10,�쐼,3,-17.7,81.9,0,0,7,��쓌,4.4,39,,
2017/2/4,2:00:00,9,��쐼,2.4,-16.1,82.2,0,0,8,��,4.5,31,,
2017/2/4,3:00:00,10,�쐼,2.1,-16.1,70.5,0,0,12,��,4.6,24,,
2017/2/4,4:00:00,11,���쐼,2.9,-17.2,74.1,0,0,12,��,3.9,53,,
2017/2/4,5:00:00,11,���쐼,2.9,-16.3,80.2,0,0,12,��,4.6,27,,
2017/2/4,6:00:00,11,���쐼,2.4,-18,76,0,0.01,8,��,4.6,43,,
2017/2/4,7:00:00,9,��쐼,2.5,-16.1,83.5,0,0.02,9,��쐼,5.2,15,,
2017/2/4,8:00:00,11,���쐼,2,-15.4,69.4,0,0.16,9,��쐼,4.3,43,,
2017/2/4,9:00:00,12,��,2.4,-10.4,59.4,0,0.35,10,�쐼,3.6,16,,
2017/2/4,10:00:00,12,��,1.9,-6.2,39.7,0,0.51,12,��,3.1,12,,
2017/2/4,11:00:00,10,�쐼,2.3,-1.6,28.5,0,0.61,8,��,4.2,50,,
2017/2/4,12:00:00,8,��,1.6,-0.2,25.7,0,0.65,8,��,4,14,,
2017/2/4,13:00:00,13,���k��,4.3,0.6,32.8,0,0.63,2,�k��,7.4,50,,
2017/2/4,14:00:00,13,���k��,3.2,0.9,36,0,0.55,12,��,7.3,13,,
2017/2/4,15:00:00,13,���k��,4,0.8,41.1,0,0.41,11,���쐼,7.5,46,,
2017/2/4,16:00:00,12,��,3.7,-1.3,50.7,0,0.22,13,���k��,7.6,32,,
2017/2/4,17:00:00,12,��,2.5,-2.8,66,0,0.04,12,��,5.5,3,,
2017/2/4,18:00:00,12,��,3,-7.3,66.3,0,0,11,���쐼,3.8,49,,
2017/2/4,19:00:00,11,���쐼,2.7,-9.5,72.7,0,0,12,��,3.9,22,,
2017/2/4,20:00:00,11,���쐼,2.5,-10.1,81.6,0,0,11,���쐼,3.8,36,,
2017/2/4,21:00:00,11,���쐼,2.7,-12.9,84.9,0,0,12,��,3.5,57,,
2017/2/4,22:00:00,11,���쐼,3,-12.9,87.6,0,0,11,���쐼,4.2,21,,
2017/2/4,23:00:00,11,���쐼,0.8,-11.4,91.9,0,0,16,�k,6.8,39,,
2017/2/4,0:00:00,14,�k��,1.1,-11.6,91.2,0,0,12,��,3.4,39,,
2017/2/5,1:00:00,11,���쐼,2,-14.3,86.5,0,0,9,��쐼,2.7,55,,
2017/2/5,2:00:00,11,���쐼,1.8,-14.3,92.2,0,0,12,��,4.6,20,,
2017/2/5,3:00:00,12,��,2.4,-13.4,92.3,0,0,12,��,3.5,37,,
2017/2/5,4:00:00,13,���k��,2.6,-15.1,89.5,0,0,9,��쐼,3.1,45,,
2017/2/5,5:00:00,12,��,2.5,-13.9,89.8,0,0,13,���k��,3.9,22,,
2017/2/5,6:00:00,12,��,2.4,-14.2,89.7,0,0,12,��,3.6,23,,
2017/2/5,7:00:00,12,��,3.3,-10.9,91.7,0,0.01,12,��,4.6,58,,
2017/2/5,8:00:00,12,��,2.6,-9.7,94.7,0,0.06,13,���k��,4.5,36,,
2017/2/5,9:00:00,12,��,2.5,-7.7,93.5,0,0.16,13,���k��,3.5,5,,
2017/2/5,10:00:00,14,�k��,0.7,-4.9,82.2,0,0.22,10,�쐼,2.8,8,,
2017/2/5,11:00:00,1,�k�k��,1.1,-3.5,70,0,0.18,12,��,2.5,16,,
2017/2/5,12:00:00,2,�k��,2.9,-1.9,55.1,0,0.52,2,�k��,4.5,52,,
2017/2/5,13:00:00,3,���k��,4,-1.8,59.9,0,0.62,3,���k��,5.6,48,,
2017/2/5,14:00:00,2,�k��,3.2,-1.6,62.9,0,0.53,3,���k��,6,7,,
2017/2/5,15:00:00,2,�k��,3.4,-1.4,69.5,0,0.22,1,�k�k��,5.2,54,,
2017/2/5,16:00:00,2,�k��,2.8,-1.3,69.7,0,0.18,2,�k��,5.3,14,,
2017/2/5,17:00:00,14,�k��,1,-5.6,70.5,0,0.04,1,�k�k��,4.2,1,,
2017/2/5,18:00:00,1,�k�k��,2.5,-3.2,84.8,0,0,16,�k,3.4,52,,
2017/2/5,19:00:00,13,���k��,2.5,-3.3,78.9,0,0,1,�k�k��,3.7,17,,
2017/2/5,20:00:00,13,���k��,2.4,-4.2,78.3,0,0,11,���쐼,3.6,59,,
2017/2/5,21:00:00,13,���k��,2.8,-4,79.3,0,0,14,�k��,4.3,56,,
2017/2/5,22:00:00,12,��,3.8,-4.3,78.4,0,0,12,��,5.5,58,,
2017/2/5,23:00:00,12,��,3.9,-3.9,78,0,0,2,�k��,6.6,40,,
2017/2/5,0:00:00,13,���k��,3.2,-3.3,76.7,0,0,10,�쐼,6.7,7,,
2017/2/6,1:00:00,13,���k��,3.7,-3.1,76.7,0,0,13,���k��,6.5,52,,
2017/2/6,2:00:00,13,���k��,4.2,-2.8,77.7,0,0,13,���k��,7.4,56,,
2017/2/6,3:00:00,13,���k��,3.4,-3.7,88.5,0,0,13,���k��,6.9,10,,
2017/2/6,4:00:00,13,���k��,4.4,-3.8,91.5,0,0,11,���쐼,8.4,19,,
2017/2/6,5:00:00,14,�k��,3.5,-3.3,92.2,0,0,13,���k��,7.9,49,,
2017/2/6,6:00:00,14,�k��,3.2,-3.4,92.9,0,0,12,��,6.1,2,,
2017/2/6,7:00:00,14,�k��,2.5,-3.5,93.2,0,0.01,13,���k��,7,21,,
2017/2/6,8:00:00,14,�k��,3.4,-3.2,93.2,0,0.03,13,���k��,6.1,37,,
2017/2/6,9:00:00,14,�k��,2.8,-2.8,92,0,0.07,14,�k��,6.2,15,,
2017/2/6,10:00:00,15,�k�k��,2.6,-2.4,88.1,0,0.13,14,�k��,5.3,57,,
2017/2/6,11:00:00,16,�k,3.4,-1.9,87.2,0,0.14,1,�k�k��,6.5,59,,
2017/2/6,12:00:00,16,�k,4.4,-1.9,85.2,0,0.17,1,�k�k��,7.6,24,,
2017/2/6,13:00:00,16,�k,3.2,-2,84.5,0,0.17,1,�k�k��,8.7,10,,
2017/2/6,14:00:00,2,�k��,5.6,-2.5,82.1,0,0.15,2,�k��,8.8,52,,
2017/2/6,15:00:00,2,�k��,4.8,-2.7,85.7,0,0.13,1,�k�k��,9.7,1,,
2017/2/6,16:00:00,2,�k��,4.5,-3,87.5,0,0.06,1,�k�k��,9,6,,
2017/2/6,17:00:00,1,�k�k��,3.7,-3,88.1,0,0.01,2,�k��,7.4,0,,
2017/2/6,18:00:00,2,�k��,3.4,-3.2,90.5,0,0,2,�k��,7.6,27,,
2017/2/6,19:00:00,14,�k��,2.3,-3.4,91.3,0,0,1,�k�k��,7.9,14,,
2017/2/6,20:00:00,15,�k�k��,2.6,-3.1,91.7,0,0,15,�k�k��,5,58,,
2017/2/6,21:00:00,15,�k�k��,4.1,-2.8,79.5,0,0,16,�k,7.5,59,,
2017/2/6,22:00:00,15,�k�k��,4.1,-3.1,75.8,0,0,15,�k�k��,8.6,39,,
2017/2/6,23:00:00,14,�k��,3.3,-3.5,73.9,0,0,14,�k��,8.1,38,,
2017/2/6,0:00:00,15,�k�k��,4.3,-3.5,69.2,0,0,13,���k��,8.1,54,,
2017/2/7,1:00:00,15,�k�k��,2.8,-3.9,66.4,0,0,15,�k�k��,7.9,0,,
2017/2/7,2:00:00,15,�k�k��,2.1,-4.8,67.1,0,0,15,�k�k��,4.2,31,,
2017/2/7,3:00:00,14,�k��,0.9,-6.3,67.6,0,0,16,�k,3.4,25,,
2017/2/7,4:00:00,14,�k��,1.2,-8.3,70.5,0,0,14,�k��,2.5,51,,
2017/2/7,5:00:00,13,���k��,2.4,-10,82.5,0,0,13,���k��,3.4,34,,
2017/2/7,6:00:00,13,���k��,2,-9.1,89,0,0,14,�k��,4.5,39,,
2017/2/7,7:00:00,13,���k��,1.6,-12.2,79.5,0,0.01,16,�k,3,10,,
2017/2/7,8:00:00,13,���k��,1.7,-8.1,88.5,0,0.07,14,�k��,3.8,45,,
2017/2/7,9:00:00,15,�k�k��,1,-5.5,67.4,0,0.19,14,�k��,2.9,11,,
2017/2/7,10:00:00,14,�k��,1.8,-3.8,38.2,0.5,0.48,14,�k��,3.1,57,,
2017/2/7,11:00:00,14,�k��,3.3,-3.3,41.7,0,0.56,10,�쐼,6.5,51,,
2017/2/7,12:00:00,14,�k��,3.8,-3,39.8,0,0.63,13,���k��,6.9,56,,
2017/2/7,13:00:00,15,�k�k��,2.6,-2.2,33.9,0.5,0.62,12,��,7.4,0,,
2017/2/7,14:00:00,15,�k�k��,4.2,-2.4,38.2,0.5,0.55,13,���k��,9.6,44,,
2017/2/7,15:00:00,16,�k,3.9,-2.5,37.8,0,0.41,14,�k��,11.1,42,,
2017/2/7,16:00:00,14,�k��,3.4,-4,43.6,0,0.19,1,�k�k��,11.4,14,,
2017/2/7,17:00:00,15,�k�k��,4.6,-4.3,47,0,0.03,15,�k�k��,9.2,56,,
2017/2/7,18:00:00,14,�k��,4.4,-4.6,49.1,0,0,12,��,11.2,32,,
2017/2/7,19:00:00,14,�k��,4.8,-4.8,51,0,0,16,�k,9.7,34,,
2017/2/7,20:00:00,12,��,2.5,-5.6,50.8,0,0,15,�k�k��,9.1,18,,
2017/2/7,21:00:00,11,���쐼,1.5,-9.8,51.6,0,0,16,�k,5.5,23,,
2017/2/7,22:00:00,11,���쐼,2.2,-15.4,65.2,0,0,12,��,2.8,59,,
2017/2/7,23:00:00,12,��,2,-14.8,71,0,0,7,��쓌,3.3,20,,
2017/2/7,0:00:00,11,���쐼,2.5,-14,79.5,0,0,10,�쐼,4.1,57,,
2017/2/8,1:00:00,12,��,1.3,-15.2,76.7,0,0,12,��,4,41,,
2017/2/8,2:00:00,12,��,2.7,-15.1,82.6,0,0,16,�k,4.5,3,,
2017/2/8,3:00:00,11,���쐼,2.7,-16.6,80.2,0,0,10,�쐼,4.2,34,,
2017/2/8,4:00:00,10,�쐼,3,-16.8,81.3,0,0,13,���k��,4.6,25,,
2017/2/8,5:00:00,10,�쐼,3.5,-15.9,84.3,0,0,6,�쓌,5,54,,
2017/2/8,6:00:00,11,���쐼,2.7,-14.4,83.3,0,0.01,8,��,4.6,20,,
2017/2/8,7:00:00,10,�쐼,3.1,-16.4,73.3,0,0.02,1,�k�k��,4.7,4,,
2017/2/8,8:00:00,12,��,2.5,-12.7,74.2,0,0.18,7,��쓌,4.5,16,,
2017/2/8,9:00:00,11,���쐼,1.2,-10.1,44.5,0,0.37,4,��,2.8,11,,
2017/2/8,10:00:00,12,��,0.9,-5.7,29.2,0,0.54,12,��,2.4,4,,
2017/2/8,11:00:00,16,�É�,0,0.8,23.2,0,0.63,12,��,1.5,3,,
2017/2/8,12:00:00,9,��쐼,0.6,1.1,17,0,0.68,8,��,3.2,28,,
2017/2/8,13:00:00,16,�É�,0,1.2,18.2,1.5,0.67,5,���쓌,2,20,,
2017/2/8,14:00:00,14,�k��,2.6,1.1,21.8,0.5,0.57,9,��쐼,5.4,41,,
2017/2/8,15:00:00,13,���k��,3.3,0.9,33.5,0.5,0.44,13,���k��,6.7,23,,
2017/2/8,16:00:00,13,���k��,2.6,0.2,42.4,0,0.25,15,�k�k��,7.2,24,,
2017/2/8,17:00:00,13,���k��,1.6,-3.5,46.8,0,0.04,3,���k��,3.7,4,,
2017/2/8,18:00:00,12,��,2.2,-3.6,56,0,0,12,��,2.9,20,,
2017/2/8,19:00:00,11,���쐼,2.4,-9.9,57.1,0,0,12,��,4.1,10,,
2017/2/8,20:00:00,11,���쐼,2.3,-13.3,60.4,0,0,16,�k,3.5,10,,
2017/2/8,21:00:00,11,���쐼,2.4,-14,73.5,0,0,11,���쐼,3.9,19,,
2017/2/8,22:00:00,12,��,2.8,-10.5,74.3,0,0,16,�k,4.3,39,,
2017/2/8,23:00:00,11,���쐼,2.3,-9,79.9,0,0,16,�k,4.1,45,,
2017/2/8,0:00:00,11,���쐼,2.9,-10.3,82.8,0,0,12,��,4.4,43,,
2017/2/9,1:00:00,11,���쐼,3.2,-14.7,76.3,0,0,11,���쐼,3.9,44,,
2017/2/9,2:00:00,11,���쐼,2.3,-13.3,83.5,0,0,13,���k��,3.9,31,,
2017/2/9,3:00:00,10,�쐼,2.6,-13.2,82.5,0,0,2,�k��,4,16,,
2017/2/9,4:00:00,11,���쐼,2.5,-14.9,80.9,0,0,5,���쓌,4.2,7,,
2017/2/9,5:00:00,10,�쐼,3.3,-13.3,84.8,0,0,10,�쐼,4.1,59,,
2017/2/9,6:00:00,10,�쐼,2,-17.9,80.5,0,0.01,10,�쐼,4.6,24,,
2017/2/9,7:00:00,12,��,1.7,-16.7,87.6,0,0.02,12,��,2.6,14,,
2017/2/9,8:00:00,16,�É�,0,-15.9,65,0,0.17,5,���쓌,2.1,2,,
2017/2/9,9:00:00,16,�É�,0,-10.9,48.6,0,0.37,12,��,2.2,23,,
2017/2/9,10:00:00,16,�É�,0,-2.7,34.9,0,0.53,16,�k,0.3,0,,
2017/2/9,11:00:00,4,��,1.8,-0.2,25.8,0,0.63,4,��,2.4,49,,
2017/2/9,12:00:00,4,��,1.8,-0.2,36.5,0.5,0.64,5,���쓌,2.9,36,,
2017/2/9,13:00:00,5,���쓌,1.8,0.1,41.6,0,0.58,5,���쓌,2.9,21,,
2017/2/9,14:00:00,4,��,2.4,-0.9,51.7,0,0.42,4,��,3.5,22,,
2017/2/9,15:00:00,2,�k��,1.8,-1.1,49.5,0,0.38,2,�k��,3.8,22,,
2017/2/9,16:00:00,16,�É�,0.1,-2.2,56.9,0.5,0.16,2,�k��,2.5,5,,
2017/2/9,17:00:00,16,�É�,0,-8.4,62.3,0,0.03,13,���k��,0.4,40,,
2017/2/9,18:00:00,12,��,0.4,-8.7,71.7,0,0,10,�쐼,2.1,59,,
2017/2/9,19:00:00,12,��,1.5,-9.8,83.3,0,0,11,���쐼,2.4,27,,
2017/2/9,20:00:00,11,���쐼,1.4,-7.5,86.1,0,0,12,��,2.3,44,,
2017/2/9,21:00:00,16,�É�,0,-9.9,85,0,0,10,�쐼,2.3,15,,
2017/2/9,22:00:00,13,���k��,1,-10.4,85.3,0,0,12,��,2.2,33,,
2017/2/9,23:00:00,13,���k��,1,-12.2,84.4,0,0,13,���k��,1.7,54,,
2017/2/9,0:00:00,13,���k��,2.4,-9.3,90.9,0,0,13,���k��,3.1,59,,
2017/2/10,1:00:00,11,���쐼,3.4,-6.7,89.4,0,0,10,�쐼,5.3,45,,
2017/2/10,2:00:00,12,��,2.4,-7.3,78.4,0,0,13,���k��,5.3,15,,
2017/2/10,3:00:00,12,��,2.9,-7.6,77.5,0,0,16,�k,5.8,33,,
2017/2/10,4:00:00,12,��,3.9,-7.6,76.2,0,0,11,���쐼,5.6,36,,
2017/2/10,5:00:00,12,��,2.8,-7.2,74.5,0,0,12,��,4.8,10,,
2017/2/10,6:00:00,13,���k��,2,-7.6,72.5,0,0,8,��,4.3,6,,
2017/2/10,7:00:00,12,��,3,-7.6,77.7,0,0.01,12,��,4.9,48,,
2017/2/10,8:00:00,12,��,3.8,-6.7,72.6,0,0.09,1,�k�k��,6.1,47,,
2017/2/10,9:00:00,13,���k��,2.7,-5.1,65.5,0,0.22,10,�쐼,6.6,13,,
2017/2/10,10:00:00,13,���k��,3.6,-4.9,61.5,0,0.33,14,�k��,6,54,,
2017/2/10,11:00:00,13,���k��,3.3,-3.8,59.8,0,0.4,11,���쐼,5.8,4,,
2017/2/10,12:00:00,13,���k��,3.9,-2.3,54.4,0,0.52,10,�쐼,7.3,31,,
2017/2/10,13:00:00,12,��,3.4,-1.6,49.1,0,0.52,13,���k��,5.5,4,,
2017/2/10,14:00:00,13,���k��,2.5,-0.9,46.5,0,0.39,12,��,5.3,3,,
2017/2/10,15:00:00,13,���k��,1.6,-1.1,44.9,0,0.31,13,���k��,3.8,24,,
2017/2/10,16:00:00,14,�k��,1.5,-1.4,45.5,0,0.19,3,���k��,3.1,16,,
2017/2/10,17:00:00,13,���k��,1.1,-3.8,53.7,0,0.03,14,�k��,2.9,10,,
2017/2/10,18:00:00,12,��,1.7,-3.4,63,0,0,2,�k��,3.7,33,,
2017/2/10,19:00:00,12,��,2.2,-3.9,64.4,0,0,3,���k��,4.7,47,,
2017/2/10,20:00:00,12,��,1.2,-5,65.5,0,0,11,���쐼,3.6,9,,
2017/2/10,21:00:00,13,���k��,2.1,-4.6,67.3,0,0,11,���쐼,4.5,44,,
2017/2/10,22:00:00,14,�k��,0.4,-5,68.3,0,0,5,���쓌,3.9,39,,
2017/2/10,23:00:00,16,�É�,0,-8.3,70,0,0,16,�k,0.3,0,,
2017/2/10,0:00:00,13,���k��,1.6,-6.7,74.5,0,0,10,�쐼,2.5,59,,
2017/2/11,1:00:00,16,�k,1.5,-6.5,77.3,0,0,1,�k�k��,3.6,25,,
2017/2/11,2:00:00,11,���쐼,2.7,-6.9,76.7,0,0,12,��,4.4,57,,
2017/2/11,3:00:00,11,���쐼,2.2,-9.8,74.7,0,0,16,�k,3.3,25,,
2017/2/11,4:00:00,12,��,1.7,-9.4,81.2,0,0,3,���k��,2.7,58,,
2017/2/11,5:00:00,12,��,2,-8.3,85.5,0,0,13,���k��,3.2,58,,
2017/2/11,6:00:00,11,���쐼,2.5,-8.8,78.5,0,0.01,12,��,4.9,32,,
2017/2/11,7:00:00,11,���쐼,2.8,-8,78.9,0,0.02,8,��,5.5,12,,
2017/2/11,8:00:00,10,�쐼,2.5,-7.4,71.1,0,0.13,12,��,4.5,34,,
2017/2/11,9:00:00,12,��,2.5,-3.6,50.2,0,0.32,7,��쓌,4.8,45,,
2017/2/11,10:00:00,12,��,2.6,-2.6,39.9,0,0.46,13,���k��,4.6,50,,
2017/2/11,11:00:00,13,���k��,2.6,0.4,42.5,0,0.6,13,���k��,6.1,35,,
2017/2/11,12:00:00,12,��,4,0.7,38,0,0.65,13,���k��,6.8,58,,
2017/2/11,13:00:00,12,��,2.9,1.2,35.5,0,0.64,12,��,5.5,33,,
2017/2/11,14:00:00,13,���k��,2.2,1.1,35.1,0,0.42,14,�k��,4.6,41,,
2017/2/11,15:00:00,1,�k�k��,2.3,1.2,38.9,0.5,0.29,2,�k��,4.6,50,,
2017/2/11,16:00:00,16,�k,0.3,0.7,44,0,0.21,1,�k�k��,3.7,19,,
2017/2/11,17:00:00,1,�k�k��,1.4,-1.4,50,0,0.05,15,�k�k��,3.1,25,,
2017/2/11,18:00:00,13,���k��,1.6,-1.8,59.1,0,0,16,�k,2.5,57,,
2017/2/11,19:00:00,13,���k��,1.3,-2.2,59.9,0,0,12,��,2.8,21,,
2017/2/11,20:00:00,13,���k��,1.6,-2.7,61.6,0,0,13,���k��,2.5,52,,
2017/2/11,21:00:00,16,�É�,0,-5,70.2,0,0,3,���k��,2.3,18,,
2017/2/11,22:00:00,12,��,1.4,-4.8,73.4,0,0,11,���쐼,2.5,30,,
2017/2/11,23:00:00,15,�k�k��,0.7,-4.2,74.1,0,0,14,�k��,2.7,35,,
2017/2/11,0:00:00,13,���k��,1,-3.8,76,0,0,6,�쓌,2.3,49,,
2017/2/12,1:00:00,13,���k��,0.5,-4.5,75.3,0,0,15,�k�k��,1.5,32,,
2017/2/12,2:00:00,16,�É�,0,-2.8,75.9,0,0,16,�k,0.3,0,,
2017/2/12,3:00:00,16,�É�,0,-2.8,75.6,0,0,1,�k�k��,1.9,25,,
2017/2/12,4:00:00,12,��,2.5,-2.4,79.9,0,0,13,���k��,4.4,53,,
2017/2/12,5:00:00,13,���k��,2.8,-2.2,78.9,0,0,13,���k��,6,20,,
2017/2/12,6:00:00,12,��,3.4,-2.3,80.9,0,0,13,���k��,6.1,14,,
2017/2/12,7:00:00,12,��,3.8,-1.9,79.5,0,0.02,9,��쐼,6.3,10,,
2017/2/12,8:00:00,14,�k��,2.7,-1.2,74.5,0,0.13,14,�k��,5.7,10,,
2017/2/12,9:00:00,15,�k�k��,1.7,0.4,64.1,0,0.22,14,�k��,4.8,9,,
2017/2/12,10:00:00,14,�k��,2.5,2.3,54,0,0.29,15,�k�k��,4.8,54,,
2017/2/12,11:00:00,13,���k��,2.3,2.3,52.6,0,0.37,13,���k��,4.9,6,,
2017/2/12,12:00:00,3,���k��,1.4,3.4,47.4,0,0.44,5,���쓌,4,8,,
2017/2/12,13:00:00,3,���k��,2.1,2.8,40.1,0,0.41,3,���k��,3,57,,
2017/2/12,14:00:00,1,�k�k��,1,3.8,33.8,0,0.48,14,�k��,5.2,33,,
2017/2/12,15:00:00,1,�k�k��,1.9,3.5,44.3,0,0.25,16,�k,5,3,,
2017/2/12,16:00:00,15,�k�k��,1.9,2.9,52.4,0,0.12,15,�k�k��,3.8,51,,
2017/2/12,17:00:00,16,�É�,0,-1.2,62.6,0,0.02,1,�k�k��,2.5,2,,
2017/2/12,18:00:00,14,�k��,0.4,0.1,68.2,0,0,13,���k��,2.4,59,,
2017/2/12,19:00:00,15,�k�k��,0.8,0.4,69.1,0,0,15,�k�k��,2.9,10,,
2017/2/12,20:00:00,1,�k�k��,1,0.4,70.5,0,0,1,�k�k��,2.6,28,,
2017/2/12,21:00:00,12,��,0.7,-0.3,68.5,0,0,13,���k��,2.6,39,,
2017/2/12,22:00:00,16,�É�,0,-1.6,71.4,0,0,1,�k�k��,2.3,26,,
2017/2/12,23:00:00,13,���k��,2.5,0.4,69.2,0,0,1,�k�k��,4.6,59,,
2017/2/12,0:00:00,15,�k�k��,2.2,0.2,68,0,0,14,�k��,4.6,7,,
2017/2/13,1:00:00,16,�k,2.2,-0.4,69.4,0,0,13,���k��,4,23,,
2017/2/13,2:00:00,14,�k��,0.7,-3.1,70,0,0,15,�k�k��,3.1,2,,
2017/2/13,3:00:00,16,�k,1.2,-1.5,73.4,0,0,16,�k,2.4,59,,
2017/2/13,4:00:00,15,�k�k��,1.4,-2,72.9,0,0,14,�k��,2.8,32,,
2017/2/13,5:00:00,13,���k��,1.3,-2.3,75.4,0,0,13,���k��,2.4,56,,
2017/2/13,6:00:00,12,��,1.2,-3.5,77.2,0,0,2,�k��,2.6,0,,
2017/2/13,7:00:00,13,���k��,0.7,-1.8,80.5,0,0.01,13,���k��,2.3,41,,
2017/2/13,8:00:00,13,���k��,1.8,-1.1,71.6,0,0.11,12,��,3.2,43,,
2017/2/13,9:00:00,13,���k��,2.4,0.8,56.5,0,0.25,4,��,3.6,55,,
2017/2/13,10:00:00,13,���k��,2.4,2,44,0,0.54,4,��,4.6,29,,
2017/2/13,11:00:00,13,���k��,2.3,3.2,35.9,0,0.65,11,���쐼,4.5,44,,
2017/2/13,12:00:00,12,��,2.1,3.9,29.7,0,0.74,13,���k��,4,37,,
2017/2/13,13:00:00,7,��쓌,2.2,2.3,48.3,0,0.56,6,�쓌,4,43,,
2017/2/13,14:00:00,7,��쓌,2.6,2,57.5,0,0.38,6,�쓌,4.8,43,,
2017/2/13,15:00:00,8,��,2.4,1.6,59,0,0.27,8,��,4.6,16,,
2017/2/13,16:00:00,8,��,1,1.2,65.6,0,0.07,8,��,4,1,,
2017/2/13,17:00:00,9,��쐼,1.2,0.9,68.2,0,0.02,10,�쐼,1.9,56,,
2017/2/13,18:00:00,16,�É�,0,0.5,74.6,0,0,10,�쐼,1.6,1,,
2017/2/13,19:00:00,3,���k��,1.2,0.3,78.2,0,0,2,�k��,2.4,51,,
2017/2/13,20:00:00,3,���k��,1.4,-0.1,84.9,0,0,4,��,2.3,59,,
2017/2/13,21:00:00,16,�É�,0,-0.2,86.5,0,0,5,���쓌,1.9,2,,
2017/2/13,22:00:00,2,�k��,0.9,-0.4,86.2,0,0,2,�k��,1.7,59,,
2017/2/13,23:00:00,2,�k��,1.1,-0.9,89.2,0,0,3,���k��,2,23,,
2017/2/13,0:00:00,3,���k��,1.5,-1,91.4,0,0,3,���k��,2,56,,
2017/2/14,1:00:00,2,�k��,1.4,-1.4,91.7,0,0,2,�k��,2.5,49,,
2017/2/14,2:00:00,16,�É�,0,-1.4,92.6,0,0,1,�k�k��,1.8,0,,
2017/2/14,3:00:00,16,�É�,0,-1.4,92.7,0,0,16,�k,0.3,0,,
2017/2/14,4:00:00,13,���k��,1.2,-1.5,87.1,0,0,14,�k��,2.2,55,,
2017/2/14,5:00:00,15,�k�k��,0.6,-1.8,79.4,0,0,12,��,1.9,39,,
2017/2/14,6:00:00,16,�k,0.8,-1.9,77.7,0,0,16,�k,12.5,4,,
2017/2/14,7:00:00,13,���k��,1,-2.1,76.1,0,0.01,1,�k�k��,2.1,20,,
2017/2/14,8:00:00,14,�k��,0.8,-1.7,72.2,0,0.08,13,���k��,2,47,,
2017/2/14,9:00:00,1,�k�k��,0.6,-0.6,55.2,0,0.21,15,�k�k��,2.5,47,,
2017/2/14,10:00:00,16,�É�,0.1,-0.2,36.7,0,0.39,1,�k�k��,1.7,1,,
2017/2/14,11:00:00,8,��,0.5,0.3,35.1,0,0.52,8,��,2.7,22,,
2017/2/14,12:00:00,7,��쓌,1.6,-0.4,39.5,0,0.49,6,�쓌,3.5,12,,
2017/2/14,13:00:00,7,��쓌,2.5,-0.3,40.4,0,0.61,7,��쓌,4.1,54,,
2017/2/14,14:00:00,7,��쓌,2.4,-0.6,55.8,0,0.32,7,��쓌,4.2,51,,
2017/2/14,15:00:00,8,��,2.1,-1.1,63.4,0,0.16,9,��쐼,4.3,58,,
2017/2/14,16:00:00,9,��쐼,2,-1.9,65.6,0,0.14,7,��쓌,4.6,15,,
2017/2/14,17:00:00,9,��쐼,1.4,-2.8,70.9,0,0.05,8,��,3.2,15,,
2017/2/14,18:00:00,16,�É�,0,-4.2,76,0,0,9,��쐼,1.8,3,,
2017/2/14,19:00:00,16,�É�,0,-4.4,79.1,0,0,13,���k��,1,37,,
2017/2/14,20:00:00,10,�쐼,0.9,-6.3,81.5,0,0,10,�쐼,1.6,55,,
2017/2/14,21:00:00,13,���k��,0.6,-8.6,81.7,0,0,14,�k��,1.6,41,,
2017/2/14,22:00:00,16,�É�,0.2,-7.8,90.8,0,0,10,�쐼,3.6,31,,
2017/2/14,23:00:00,11,���쐼,2.1,-9.2,92.1,0,0,10,�쐼,3.3,15,,
2017/2/14,0:00:00,11,���쐼,2.5,-9.7,92.9,0,0,10,�쐼,3.2,47,,
2017/2/15,1:00:00,12,��,2.1,-8.1,94.2,0,0,13,���k��,4.4,16,,
2017/2/15,2:00:00,12,��,2.5,-9.2,92.4,0,0,12,��,3.5,59,,
2017/2/15,3:00:00,12,��,2.5,-9.9,90.5,0,0,6,�쓌,4,39,,
2017/2/15,4:00:00,13,���k��,2.3,-11.1,91.4,0,0,11,���쐼,3.6,41,,
2017/2/15,5:00:00,12,��,2.1,-11.2,90.3,0,0.01,12,��,3.3,23,,
2017/2/15,6:00:00,12,��,1.6,-11.8,92.6,0,0.01,9,��쐼,3.4,42,,
2017/2/15,7:00:00,12,��,1.4,-11.5,92.6,0,0.03,8,��,2.8,25,,
2017/2/15,8:00:00,16,�É�,0.2,-10.4,91.1,0,0.21,12,��,3.4,5,,
2017/2/15,9:00:00,16,�É�,0,-5.5,58.1,0,0.41,12,��,1.9,18,,
2017/2/15,10:00:00,16,�É�,0,-2.3,33.8,0,0.56,16,�É�,0,0,,
2017/2/15,11:00:00,6,�쓌,1.4,-0.8,25.9,0,0.66,7,��쓌,3,49,,
2017/2/15,12:00:00,7,��쓌,2.4,-0.5,40.2,0,0.7,6,�쓌,3.9,54,,
2017/2/15,13:00:00,7,��쓌,1.9,-0.4,48.5,0,0.67,7,��쓌,4.1,10,,
2017/2/15,14:00:00,7,��쓌,2.3,-0.3,53.3,0,0.6,7,��쓌,3.8,50,,
2017/2/15,15:00:00,7,��쓌,1.4,0.2,55.3,0,0.46,8,��,3.4,1,,
2017/2/15,16:00:00,6,�쓌,0.4,0.8,58.6,0,0.28,7,��쓌,2.4,4,,
2017/2/15,17:00:00,16,�É�,0,-3.3,71.3,0,0.08,16,�É�,0,0,,
2017/2/15,18:00:00,16,�É�,0,-5.6,79.4,0,0,16,�É�,0,0,,
2017/2/15,19:00:00,12,��,1.7,-8.6,85.9,0,0,12,��,2.6,57,,
2017/2/15,20:00:00,13,���k��,1.2,-7.4,91.4,0,0,12,��,2.4,16,,
2017/2/15,21:00:00,12,��,1.2,-8.5,92.6,0,0,12,��,2.2,24,,
2017/2/15,22:00:00,13,���k��,0.7,-9.3,93.1,0,0,16,�k,3.1,13,,
2017/2/15,23:00:00,13,���k��,1.7,-10.9,92.5,0,0,13,���k��,2.3,17,,
2017/2/15,0:00:00,13,���k��,2.3,-10.8,91,0,0,12,��,2.9,59,,
2017/2/16,1:00:00,12,��,1.6,-13.1,91.7,0,0,16,�k,3,12,,
2017/2/16,2:00:00,12,��,1.6,-12.7,91.3,0,0,11,���쐼,2.5,11,,
2017/2/16,3:00:00,12,��,2,-12.1,89.4,0,0,12,��,2.6,36,,
2017/2/16,4:00:00,12,��,1.9,-12.9,89,0,0,12,��,3,4,,
2017/2/16,5:00:00,12,��,1.7,-11.8,92.2,0,0.01,5,���쓌,3.8,49,,
2017/2/16,6:00:00,11,���쐼,2.2,-13.5,89.8,0,0.01,12,��,3.3,25,,
2017/2/16,7:00:00,11,���쐼,2.1,-12,93.2,0,0.04,16,�k,3.4,21,,
2017/2/16,8:00:00,12,��,0.3,-11.1,87.1,0,0.2,16,�k,3.8,4,,
2017/2/16,9:00:00,12,��,2.1,-7.7,71.5,0,0.38,11,���쐼,2.7,0,,
2017/2/16,10:00:00,8,��,1.7,-2,39.2,0,0.48,8,��,3.9,57,,
2017/2/16,11:00:00,7,��쓌,1.3,-1.1,53.4,0,0.42,8,��,4.2,37,,
2017/2/16,12:00:00,5,���쓌,2.1,0.4,48.9,0,0.67,4,��,4.2,49,,
2017/2/16,13:00:00,5,���쓌,2.6,0.6,58.4,0,0.5,5,���쓌,4.3,51,,
2017/2/16,14:00:00,7,��쓌,1.2,1.2,60,0,0.41,5,���쓌,4.9,6,,
2017/2/16,15:00:00,7,��쓌,4,2.3,68.5,0,0.34,6,�쓌,6.7,58,,
2017/2/16,16:00:00,8,��,3.6,3,80.2,0,0.14,7,��쓌,8.2,4,,
2017/2/16,17:00:00,7,��쓌,2.6,2.1,85.6,0,0.03,8,��,7,0,,
2017/2/16,18:00:00,5,���쓌,0.6,2.2,90.4,0,0,6,�쓌,4.5,1,,
2017/2/16,19:00:00,12,��,1.4,0.7,91,0,0,12,��,2.6,59,,
2017/2/16,20:00:00,12,��,2.8,0.7,82.7,0,0,13,���k��,4.9,59,,
2017/2/16,21:00:00,16,�É�,0,-0.2,80,0,0,13,���k��,5.1,0,,
2017/2/16,22:00:00,16,�É�,0,-0.4,83.5,0,0,12,��,2.9,21,,
2017/2/16,23:00:00,7,��쓌,1,-0.1,85.1,0,0,11,���쐼,2.7,49,,
2017/2/16,0:00:00,7,��쓌,1.9,5.3,78.2,0,0,6,�쓌,5.8,48,,
2017/2/17,1:00:00,11,���쐼,4.2,8.4,72.9,0,0,11,���쐼,8.5,58,,
2017/2/17,2:00:00,16,�k,1.5,6.8,60,0,0,11,���쐼,8.5,32,,
2017/2/17,3:00:00,11,���쐼,8.2,9.3,51.5,0,0,11,���쐼,15.3,52,,
2017/2/17,4:00:00,11,���쐼,4.6,8.7,46.1,0,0,11,���쐼,14.5,4,,